Flag for Poland Weather past 2 weeks in Kielce, Poland

Now
52 °F

Scattered clouds.


Feels Like: 51 °F
Forecast: 46 / 64 °F
Wind: 5 mph from Northeast

Location: Kielce


UV Index: 3 (Moderate)

Visibility: 11 mi


Pressure: 29.93 "Hg

Humidity: 72%

Dew point: 43 °F

Location of KielceLocation

Historic Weather in Kielce

°F

Kielce temperature yesterday

Maximum temperature yesterday: 64 °F (at 4:00 PM)
Minimum temperature yesterday: 34 °F (at 3:00 AM)
Average temperature yesterday: 51 °F

Past Weeks' High & Low Weather Summary

 TemperatureHumidityPressure
High70 °F (Apr 8, 3:00 PM)100% (Apr 6, 11:00 AM)30.37 "Hg (Apr 6, 11:00 AM)
Low30 °F (Apr 13, 3:00 AM)39% (Apr 17, 3:00 PM)29.67 "Hg (Apr 14, 1:00 PM)
Average45 °F79%30.02 "Hg
* Reported Apr 4 6:00 AM — Apr 19 6:00 AM, Kielce, Weather by CustomWeather, © 2014

Note: Actual official high and low records may vary slightly from our data, if they occured in-between our weather recording intervals... More about our weather records

Advertising

Historic Weather Conditions — Data for Previous 24 hours

 ConditionsComfort  
Time TempWeatherWind HumidityBarometerVisibility
6:00 AM
Apr 19
52 °FScattered clouds.5 mph72%29.93 "Hg11 mi
5:00 AM52 °FPassing clouds.5 mph75%29.92 "Hg11 mi
4:00 AM50 °FClear.2 mph81%29.91 "Hg10 mi
3:00 AM52 °FClear.3 mph75%29.90 "Hg11 mi
2:00 AM53 °FClear.5 mph76%29.89 "Hg11 mi
1:00 AM52 °FPassing clouds.3 mph81%29.89 "Hg9 mi
12:00 AM52 °FClear.2 mph83%29.88 "Hg8 mi
10:00 PM
Apr 18
54 °FPassing clouds.3 mph77%29.84 "Hg8 mi
9:00 PM57 °FPassing clouds.3 mph67%29.83 "Hg10 mi
8:00 PM59 °FOvercast.3 mph62%29.82 "Hg11 mi
7:00 PM60 °FOvercast.2 mph59%29.80 "Hg16 mi
6:00 PM62 °FOvercast.2 mph55%29.79 "Hg6 mi
5:00 PM64 °FSprinkles. Overcast.2 mph48%29.78 "Hg22 mi
4:00 PM64 °FOvercast.6 mph49%29.78 "Hg25 mi
3:00 PM64 °FScattered clouds.5 mph46%29.78 "Hg16 mi
2:00 PM63 °FPassing clouds.2 mph47%29.79 "Hg19 mi
1:00 PM61 °FPassing clouds.2 mph52%29.80 "Hg19 mi
12:00 PM57 °FPartly sunny.1 mph58%29.82 "Hg15 mi
11:00 AM56 °FPassing clouds.3 mph62%29.84 "Hg16 mi
10:00 AM52 °FPassing clouds.5 mph72%29.85 "Hg13 mi
9:00 AM49 °FPassing clouds.3 mph82%29.85 "Hg11 mi
8:00 AM45 °FSunny.3 mph91%29.87 "Hg7 mi
7:00 AM38 °FFog.No wind99%29.90 "Hg3 mi
Weather by CustomWeather, © 2014

See weather overview